Location: Bothwell
(41.7170°N, 112.2589°W)
Time: 01:37:09
(UTC+00:00)

Tiros 1 - Pass Details

Date: 13 May 2026
Orbit: 618 x 649 km, 48.4° (Epoch: 6 June)

Event Time Altitude Azimuth Distance (km) Brightness Sun altitude
Rises 09:54:27 0° 274° (W) 2,904 - -20.7°
Reaches altitude 10° 09:56:55 10° 283° (WNW) 1,993 - -20.4°
Exits shadow 09:57:56 16° 289° (WNW) 1,642 9.0 -20.3°
Maximum altitude 10:01:11 37° 352° (N) 960 8.3 -19.9°
Drops below altitude 10° 10:05:26 10° 60° (ENE) 1,983 10.7 -19.4°
Sets 10:07:53 0° 69° (ENE) 2,887 11.6 -19.1°
